Tracking 28790 objects as of 19-Apr-2024
HD Live streaming from Space Station
objects crossing your sky now

FENGYUN 1C DEB

Track FENGYUN 1C DEB now!
10-day predictions


NORAD ID: 37714
Int'l Code: 1999-025EMF
Perigee: 788.0 km
Apogee: 868.7 km
Inclination: 98.9 °
Period: 101.3 minutes
Semi major axis: 7199 km
RCS: 0.001 m2 (small)
Launch date: May 10, 1999
Source: People's Republic of China (PRC)
Launch site: Taiyaun Space Center, China (TSC)

Note: This is SATELLITE DEBRIS
Your satellite tracking list
Your tracking list is empty




NASA's NSSDC Master Catalog

Two Line Element Set (TLE):
1 37714U 99025EMF 24110.23014735  .00009676  00000-0  43886-2 0  9999
2 37714  98.8840 206.1517 0056044  32.5309 327.9301 14.21233680802425
Source of the keplerian elements: AFSPC